Dewpoint
3 4 6 4 4 4 5 5 5 4 4 4 3 2 1 0 0 2 4 4 2 -2 -9 -10 -11 -5 -1 -4 -5 -5 -1 -3 -4 -7 -3 -5 -5 -5 -6 -7 -10 -9 -8 -4 -6
-1 -1 2 3 3 3 4 5 3 4 5 4 2 1 1 3 3 4 1 1 -2 -10 -13 -7 -6 -4 -3 -3 -6 -3 -1 -3 -4 -3 -4 -4 -5 -6 -9 -9 -10 -8 -7 -6 -7
-1 1 1 4 3 2 1 0 0 1 1 2 1 -0 1 -1 -2 -4 -8 -7 -7 -8 -4 -2 -4 -4 -4 -4 -4 -6 -1 -4 -1 -3 -4 -4 -7 -7 -8 -7 -6 -7 -5 -5 -6
2 2 3 4 3 1 0 1 -1 -0 -0 0 -2 -1 -3 1 -1 -5 -10 -8 -8 -7 -4 -3 -5 -4 -3 -3 -5 -3 -4 -3 -2 -4 -6 -5 -5 -7 -7 -5 -5 -5 -4 -6 -4
-2 2 4 3 2 1 1 -2 -1 -2 -2 -2 -4 -7 -4 -2 -4 -8 -10 -10 -7 -8 -8 -5 -4 -5 -4 -3 -6 -5 -4 -3 -3 -7 -6 -5 -5 -5 -5 -5 -5 -6 -9 -7 -3
-6 -5 -2 -1 -2 -2 -3 -3 -4 -5 -3 -6 -7 -6 -5 -3 -5 -10 -11 -11 -9 -9 -6 -4 -5 -7 -7 -7 -5 -5 -6 -4 -5 -4 -3 -4 -4 -3 -5 -4 -5 -6 -6 -5 -2
-6 -6 -6 -6 -6 -6 -5 -2 -6 -7 -4 -5 -5 -3 -5 -6 -5 -8 -11 -13 -9 -10 -10 -7 -7 -8 -8 -5 -5 -5 -4 -4 -3 -3 -4 -4 -6 -4 -6 -5 -4 -6 -6 -5 -4
-8 -6 -4 -4 -5 -5 -4 -4 -8 -9 -7 -7 -6 -4 -9 -6 -4 -8 -6 -11 -15 -13 -13 -13 -9 -6 -5 -6 -5 -4 -4 -0 -3 -4 -5 -6 -5 -4 -5 -5 -4 -5 -6 -5 -3
-12 -9 -7 -7 -7 -5 -5 -11 -9 -11 -13 -13 -6 -5 -5 -4 -6 -9 -6 -9 -14 -16 -14 -11 -7 -6 -6 -5 -6 -6 -5 -1 -3 -5 -4 -5 -3 -6 -6 -6 -5 -6 -6 -4 -3
-13 -13 -10 -9 -9 -6 -12 -10 -9 -10 -12 -13 -7 -6 -4 -4 -7 -9 -10 -7 -11 -13 -12 -8 -5 -5 -6 -5 -2 -4 -7 -7 -2 -4 -6 -4 -4 -5 -6 -7 -7 -6 -4 -4 -4
-7 -13 -13 -12 -11 -11 -9 -3 -2 -5 -9 -3 -4 -3 -6 -4 -5 -7 -8 -9 -8 -5 -2 -3 -3 -3 -7 -8 -8 -8 -9 -8 -3 -5 -4 -3 -3 -3 -5 -6 -6 -5 -4 -3 -3
-8 -11 -12 -13 -13 -12 -11 -8 -5 -7 -5 -5 -5 -6 -7 -3 -2 -7 -6 -5 -5 -3 -6 -3 -2 -6 -6 -7 -7 -7 -6 -3 -3 -5 -5 -5 -4 -5 -6 -6 -6 -4 -3 -3 -2
-9 -10 -13 -14 -13 -14 -13 -11 -8 -4 -2 -5 -4 -4 -6 -3 -3 -5 -4 -6 -5 -6 -5 -1 -4 -7 -7 -7 -5 -5 -4 -3 -3 -3 -4 -4 -4 -3 -3 -4 -4 -2 -2 -1 -1
-8 -10 -12 -15 -14 -13 -9 -8 -9 -10 3 -3 -3 -5 -4 -3 -4 -7 -6 -4 -6 -3 -4 -4 -7 -6 -7 -5 -4 -2 -4 -3 -2 -3 -5 -5 -5 -3 -2 -3 -3 -2 -1 -2 -4
-9 -10 -9 -15 -7 -10 -7 -9 -7 -3 -6 -1 -3 -5 -5 -2 -3 -5 -8 -6 -5 -5 -3 -2 -4 -4 -4 -4 -5 -2 -4 -3 -2 -1 -2 -3 -1 -2 -2 -2 -2 -3 -3 -5 -5
-13 -8 -11 -10 -11 -9 -9 -13 -3 -1 -11 -1 -2 -2 -4 -4 -5 -6 -7 -6 -5 -4 -4 -4 -6 -5 -6 -5 -5 -4 -3 -2 -1 0 2 -2 -1 -1 -1 -3 -4 -3 -5 -6 -5
-14 -9 -9 -12 -6 -12 -9 -9 2 -1 -4 -1 -1 -3 -3 -3 -5 -4 -5 -5 -3 -1 -0 -3 -4 -5 -5 -3 -3 -3 1 4 5 4 2 -2 -2 -2 -7 -7 -6 -3 -4 -5 -6
-13 -11 -6 -10 -12 -12 -11 0 2 -2 -4 -3 -2 -4 -3 -6 -5 -5 -4 -5 -7 -5 1 1 1 -2 -7 -4 -0 -1 0 2 1 5 4 -2 -1 -4 -6 -5 -5 -5 -5 -5 -4
-12 -9 -7 -5 -7 -6 2 3 -2 0 -2 -1 -3 -4 -4 -5 -4 -4 -4 -4 -7 -7 -3 1 -1 -6 -5 -5 -3 -1 0 -1 0 1 1 -2 -4 -5 -7 -5 -4 -4 -4 -3 -2
-10 -7 -3 -3 -4 -4 3 4 0 -3 -4 -3 -7 -5 -2 -3 -6 -4 -4 -7 -8 -8 -7 -4 -1 -4 -4 -4 -3 -2 -3 -1 1 0 4 1 -3 -2 -5 -5 -4 -3 -3 -2 -3
-9 1 2 0 -2 2 2 2 -2 -3 -4 -4 -5 -6 -7 -3 -5 -5 -5 -6 -8 -8 -8 -5 -2 -1 -3 -2 -1 -2 -1 -1 0 1 2 2 0 -4 -4 -5 -4 -3 -3 -3 -4
-6 -2 0 -1 1 2 3 -1 -3 -3 -3 -2 -3 -4 -8 -5 -5 -6 -5 -4 -8 -8 -5 -4 -1 1 -0 -3 -4 -3 -1 -2 0 -1 1 1 0 -6 -6 -6 -5 -4 -3 -4 -3
-4 0 -0 0 1 2 1 -1 -2 -1 -1 -2 -2 -4 -4 -5 -4 -4 -2 -6 -7 -6 -4 -4 -0 0 1 -1 -2 -2 -2 -1 -0 -0 1 1 0 -6 -5 -3 -3 -3 -3 -3 -3
-3 -1 2 1 1 0 1 -0 -0 -1 -2 -3 -3 -3 -3 -3 -4 -2 -1 -5 -7 -4 -4 -4 0 -2 -1 0 0 -1 -1 -2 -1 -1 0 1 -2 -5 -3 -3 -3 -4 -4 -4 -4
-2 -1 1 3 2 -1 -2 -2 1 1 -1 -3 -2 -2 -2 -2 -2 -2 -1 -3 -6 -4 -4 -2 -1 0 -0 -1 -1 -1 -1 -1 -1 -1 -0 -3 -3 -4 -3 -4 -5 -5 -5 -6 -6
-2 1 1 -2 -1 0 0 -2 0 1 -0 0 -0 -1 -2 -2 -3 -1 -1 -1 -2 -3 -3 -3 -1 -3 -2 -1 -1 -0 -1 -1 -1 -1 -1 -1 -1 -4 -5 -5 -5 -6 -8 -9 -10
-0 0 -3 -3 -1 -1 -0 -2 -2 -1 -1 -2 -1 -1 -1 -2 -2 -1 -2 -2 -3 -3 -2 -1 -0 -1 0 -2 -3 -2 -3 -2 -2 -3 -3 -1 -2 -4 -5 -6 -8 -10 -11 -13 -14
Wind_Speed
7 9 10 9 7 11 10 9 9 10 10 11 14 17 17 18 18 16 11 11 13 19 13 11 11 10 7 4 4 2 4 1 2 4 4 4 3 2 2 5 3 4 3 7 2
10 10 10 11 11 12 11 10 9 10 11 11 16 20 22 16 9 7 5 9 12 15 15 11 10 11 3 4 2 3 4 2 2 2 5 5 5 4 1 2 4 9 6 3 1
9 11 11 10 10 10 9 8 7 8 10 12 19 21 18 10 10 3 5 10 15 19 18 14 11 8 4 4 2 2 3 4 3 6 8 6 2 2 2 1 3 15 13 5 0
9 9 9 9 8 8 6 6 6 8 8 13 18 18 14 4 4 3 3 9 13 15 16 14 12 4 4 4 3 4 4 4 4 3 4 4 2 2 6 3 9 16 11 6 4
6 5 6 7 6 5 4 5 6 7 7 13 18 13 5 3 2 1 5 10 12 13 14 12 7 2 2 6 4 3 3 6 5 4 3 1 3 5 5 9 8 6 5 6 4
4 4 3 3 3 3 4 5 6 7 9 14 11 6 2 1 2 4 6 10 12 12 12 11 4 4 5 4 4 3 7 7 4 2 2 2 0 3 2 14 11 7 8 8 5
3 3 2 2 2 3 4 5 6 6 10 12 10 5 5 6 7 7 9 8 10 11 12 9 7 4 5 4 6 9 4 1 4 4 1 2 3 6 7 10 16 12 7 6 3
2 2 2 2 3 4 4 5 5 6 10 12 7 2 5 6 5 8 10 7 8 7 8 9 10 7 3 11 4 3 3 2 2 6 3 2 5 3 12 14 18 13 10 8 5
2 1 1 2 3 3 4 5 7 9 9 7 5 2 3 5 3 8 7 9 9 9 10 11 7 4 6 5 4 1 3 4 2 5 3 3 4 5 14 16 15 14 14 12 12
4 2 1 1 2 3 4 8 9 8 7 8 5 2 3 1 5 7 9 8 7 12 8 4 3 3 3 4 4 3 3 3 4 5 3 4 8 6 15 16 15 11 16 15 11
5 2 1 1 2 4 8 4 3 3 4 3 3 7 8 10 6 6 7 10 8 6 3 1 5 3 3 3 3 2 1 1 2 3 3 6 7 9 17 12 10 8 20 16 14
9 3 2 2 3 5 2 2 3 5 7 8 7 6 6 5 4 5 5 3 3 3 3 5 2 2 2 2 2 1 1 2 2 3 1 2 7 2 7 6 9 20 19 16 10
12 5 2 0 3 2 1 1 6 4 3 2 4 2 3 3 3 2 3 4 2 4 3 5 2 1 0 2 3 4 3 2 0 4 3 2 6 3 2 9 14 19 18 12 12
11 7 4 1 1 1 3 6 4 1 4 1 1 1 3 5 3 4 4 3 2 4 5 4 1 1 1 3 2 3 1 2 2 4 2 2 4 3 3 4 8 15 19 17 14
10 7 3 3 0 2 2 2 1 2 4 3 3 3 3 2 6 3 4 3 3 3 6 3 2 1 2 2 1 3 2 2 1 1 2 3 3 6 5 5 8 14 15 14 13
7 6 4 1 4 4 4 2 0 6 4 3 5 4 3 2 2 4 2 4 4 3 6 2 1 2 2 2 2 4 3 3 3 2 2 4 5 4 5 7 6 14 19 17 13
10 4 3 3 1 4 7 2 5 4 0 3 4 4 4 4 3 4 4 2 4 5 1 1 1 0 2 2 1 2 5 3 4 3 5 2 1 7 3 2 10 16 23 17 13
10 7 4 3 4 5 5 4 3 5 5 2 4 3 4 4 2 3 3 2 4 3 3 5 4 5 1 1 5 4 5 5 6 3 4 3 5 4 2 7 15 26 20 15 11
8 7 8 6 6 6 4 3 6 6 5 9 3 4 4 2 3 3 6 5 6 7 7 5 1 1 3 2 2 2 2 3 5 3 3 4 3 4 4 6 16 20 17 14 11
8 8 10 8 7 9 4 5 4 2 4 3 6 6 8 6 5 7 7 3 6 2 2 4 4 2 1 2 1 2 1 3 3 2 4 5 4 4 6 7 7 11 15 15 12
7 4 6 8 10 6 4 7 3 2 3 5 5 5 5 7 8 5 6 1 4 3 1 2 3 2 3 5 7 1 1 1 3 4 4 1 5 3 7 8 9 16 22 18 11
4 2 7 12 3 4 4 5 3 4 3 1 1 1 7 7 5 4 7 2 8 9 7 2 5 3 4 2 2 2 5 5 4 4 3 3 5 2 6 10 10 11 16 12 6
4 4 8 16 4 3 3 3 5 5 4 5 5 3 1 5 4 4 5 1 7 4 6 5 1 2 5 4 3 3 4 4 5 3 4 5 5 2 10 14 16 19 12 9 8
4 1 6 12 8 5 5 5 5 8 4 5 3 4 3 3 1 5 4 2 5 4 5 4 3 6 7 4 4 4 5 5 6 3 4 6 3 4 4 6 9 11 9 9 9
6 5 4 3 6 5 5 5 6 6 5 10 3 6 7 6 5 5 4 3 1 4 3 5 5 2 3 2 1 5 5 7 8 8 8 4 7 3 5 7 11 8 6 9 9
4 3 2 4 4 7 5 6 9 5 8 5 5 9 7 5 7 9 8 5 5 2 4 1 1 3 4 5 2 5 8 11 8 8 11 11 8 6 14 13 8 4 4 6 9
6 8 3 5 2 4 5 7 8 8 8 10 11 4 7 7 10 11 8 8 13 9 6 6 5 3 4 2 5 6 11 12 4 3 4 8 2 8 4 7 3 6 6 5 9
Wind_Direction
42 52 68 70 72 75 79 87 97 102 119 135 140 141 141 144 147 153 170 187 194 196 205 192 182 163 156 210 188 187 67 200 347 126 161 143 103 96 87 129 113 120 119 136 145
58 71 85 88 84 87 88 93 100 115 125 131 136 137 139 133 138 152 203 207 192 172 181 171 174 157 170 214 162 105 111 173 310 38 142 120 94 135 120 174 180 126 135 148 173
70 83 87 93 90 88 95 92 93 104 111 126 135 138 140 129 133 160 189 174 166 166 177 169 162 181 204 181 139 125 149 154 45 81 112 117 108 170 143 286 289 176 149 149 84
73 91 99 95 84 86 82 69 85 103 109 133 143 145 133 133 128 231 165 160 162 167 169 165 158 155 160 164 140 103 70 97 135 104 96 96 145 184 215 156 123 137 143 141 153
48 70 86 85 92 95 66 51 81 96 113 133 141 144 134 135 158 213 145 152 155 162 159 145 168 236 173 139 120 95 133 103 119 127 128 177 233 234 238 195 202 178 148 135 156
48 72 85 109 100 77 60 72 78 90 121 134 135 163 189 153 173 97 136 147 156 160 159 159 135 107 107 97 93 114 121 131 154 205 187 189 26 209 256 180 179 176 135 137 163
45 51 62 50 56 53 65 77 83 98 126 131 131 134 83 138 97 99 93 131 158 174 162 166 153 135 124 99 116 126 93 100 187 194 153 184 261 229 148 178 167 161 157 156 187
8 28 32 29 22 53 73 80 89 102 118 123 140 108 84 130 106 123 109 106 145 165 158 159 155 123 89 119 93 119 110 136 217 161 163 98 276 232 186 168 169 176 175 170 160
326 346 5 28 50 67 89 96 101 98 107 128 125 67 116 110 113 120 139 122 110 119 127 134 137 114 123 101 36 291 206 174 219 195 129 154 259 217 175 177 183 195 181 165 156
326 296 342 33 79 111 102 110 95 95 102 125 104 134 124 97 93 107 121 125 112 114 107 108 96 86 48 86 198 208 225 180 173 221 184 194 255 258 201 194 194 188 167 160 154
348 307 243 168 135 125 120 121 114 81 61 87 106 103 111 101 92 96 117 110 108 86 99 117 77 153 154 133 174 241 252 121 124 211 171 226 256 272 203 196 203 187 153 151 149
359 342 321 153 135 138 119 60 88 129 96 81 89 109 114 126 106 87 124 110 100 101 103 31 126 155 124 86 81 39 341 26 57 190 197 273 269 253 173 191 188 154 151 145 151
7 3 23 144 149 143 316 81 140 127 89 90 129 115 119 110 94 71 137 123 99 131 149 142 186 158 147 76 75 42 104 72 122 316 271 350 319 80 47 94 129 152 150 152 162
6 5 352 151 155 147 123 130 155 201 79 205 181 109 141 132 64 71 128 114 86 114 118 104 242 201 136 96 65 166 359 89 52 52 234 93 278 267 192 151 122 142 149 144 149
350 355 342 228 290 181 171 151 233 164 48 189 153 151 135 119 142 44 108 81 108 101 91 224 149 124 107 118 11 164 118 104 107 90 44 308 95 276 145 200 213 184 171 175 186
341 343 331 293 232 179 177 226 77 45 260 147 148 167 135 160 115 116 82 82 100 91 46 105 47 67 117 107 84 148 109 35 42 75 27 243 135 249 199 209 198 186 164 160 169
325 315 320 274 223 210 187 198 37 129 257 188 182 166 192 157 150 167 150 135 145 98 207 45 78 207 172 125 18 88 75 358 354 5 220 292 72 248 191 301 182 167 170 173 178
316 293 273 236 162 153 168 57 115 208 194 157 120 116 161 151 167 159 137 191 233 151 132 150 307 173 202 180 175 179 153 158 206 203 246 332 237 257 107 59 152 160 153 152 163
313 282 262 222 207 181 156 82 216 214 155 148 69 143 216 190 163 148 201 203 186 176 166 149 240 80 63 28 84 217 192 175 105 358 64 244 301 338 73 66 108 132 139 152 163
309 281 256 216 197 177 93 230 229 164 125 125 171 168 181 195 158 173 191 198 170 152 128 189 103 200 168 56 14 169 177 62 354 146 240 277 252 227 201 185 159 146 153 155 151
299 258 220 199 178 179 172 227 230 194 184 165 207 174 207 176 179 197 197 291 146 160 95 149 104 269 85 201 182 135 234 122 125 157 179 221 261 246 200 195 182 178 173 158 159
242 279 186 182 184 207 186 203 174 173 182 248 241 181 184 162 171 227 173 77 159 150 157 150 131 170 222 342 360 220 189 156 135 229 225 153 274 244 102 87 103 189 154 138 120
213 242 204 187 189 237 245 182 186 148 194 189 220 211 154 164 169 161 112 158 139 128 164 182 200 72 345 350 344 208 206 135 112 65 215 148 258 120 98 93 92 99 100 86 65
257 246 183 207 245 188 182 207 200 185 184 181 168 131 120 202 87 159 126 160 162 131 139 129 160 174 191 190 135 184 206 189 138 132 213 210 189 206 110 116 99 99 83 63 46
219 237 211 212 251 208 190 192 165 186 219 173 197 203 176 172 163 182 124 125 104 152 128 125 188 201 251 211 218 220 211 209 194 203 196 198 209 163 152 134 113 91 34 8 341
258 246 287 275 253 168 194 228 192 174 155 220 195 194 202 176 189 199 139 166 181 159 149 65 215 94 313 291 250 227 231 241 228 229 252 260 260 141 134 124 113 91 37 348 335
241 273 269 271 254 147 218 216 209 163 209 179 198 145 184 187 134 116 110 125 157 149 161 145 136 100 251 15 356 318 223 213 197 175 213 231 194 144 102 95 55 6 11 36 347
Height
1499 1498 1496 1494 1493 1492 1491 1490 1488 1488 1490 1492 1494 1497 1501 1504 1508 1511 1513 1514 1515 1515 1520 1524 1526 1528 1528 1529 1528 1528 1538 1541 1532 1532 1536 1535 1536 1538 1540 1542 1543 1543 1545 1548 1550
1500 1499 1498 1497 1496 1495 1495 1494 1494 1493 1493 1494 1496 1498 1502 1506 1509 1512 1514 1515 1515 1513 1517 1524 1527 1528 1528 1528 1527 1527 1539 1533 1532 1531 1533 1534 1536 1539 1541 1541 1542 1543 1545 1547 1548
1502 1500 1500 1500 1499 1498 1498 1498 1497 1496 1494 1495 1498 1500 1503 1506 1509 1512 1513 1514 1516 1520 1524 1525 1526 1526 1527 1527 1527 1527 1534 1531 1533 1533 1532 1535 1537 1538 1540 1541 1541 1541 1543 1546 1547
1504 1503 1502 1502 1500 1499 1499 1499 1498 1497 1497 1498 1500 1502 1504 1507 1512 1510 1512 1514 1516 1519 1523 1523 1523 1523 1526 1527 1525 1530 1530 1530 1533 1533 1533 1536 1538 1539 1539 1540 1541 1541 1543 1545 1546
1505 1503 1502 1502 1502 1501 1501 1499 1498 1498 1499 1499 1501 1504 1506 1508 1509 1509 1510 1511 1514 1517 1519 1519 1521 1521 1523 1524 1525 1528 1530 1531 1533 1534 1535 1537 1537 1538 1537 1538 1540 1541 1542 1543 1545
1506 1504 1503 1503 1502 1502 1501 1500 1500 1499 1500 1501 1502 1506 1507 1508 1509 1509 1508 1510 1512 1514 1516 1517 1519 1521 1523 1524 1526 1528 1529 1532 1534 1535 1535 1537 1537 1538 1535 1536 1539 1540 1542 1543 1544
1506 1505 1504 1503 1502 1501 1501 1501 1501 1501 1502 1503 1505 1507 1506 1510 1508 1508 1508 1510 1511 1513 1514 1517 1518 1520 1523 1525 1527 1528 1533 1534 1534 1535 1535 1536 1537 1535 1533 1535 1537 1539 1540 1541 1543
1505 1504 1504 1503 1502 1501 1501 1502 1502 1503 1502 1503 1506 1507 1508 1509 1508 1508 1508 1510 1512 1513 1514 1517 1519 1521 1523 1525 1528 1531 1533 1541 1534 1534 1535 1536 1538 1529 1532 1534 1536 1539 1540 1541 1542
1505 1504 1504 1504 1503 1503 1502 1503 1503 1503 1503 1505 1507 1507 1510 1509 1509 1508 1510 1511 1512 1513 1515 1517 1520 1522 1525 1529 1538 1534 1541 1537 1536 1533 1533 1536 1537 1531 1531 1532 1534 1536 1538 1540 1541
1505 1504 1503 1503 1503 1503 1503 1503 1503 1504 1505 1506 1507 1510 1510 1509 1508 1509 1510 1511 1512 1513 1517 1519 1521 1525 1527 1534 1554 1537 1535 1528 1534 1533 1532 1535 1535 1530 1530 1531 1532 1535 1537 1539 1541
1504 1504 1503 1503 1503 1504 1503 1504 1507 1507 1505 1506 1507 1507 1507 1509 1509 1510 1511 1512 1513 1514 1519 1520 1527 1531 1527 1526 1527 1526 1525 1526 1534 1531 1533 1533 1532 1527 1525 1529 1531 1533 1535 1538 1540
1504 1503 1503 1503 1503 1503 1503 1502 1503 1506 1508 1507 1507 1507 1508 1509 1510 1511 1512 1513 1513 1517 1518 1526 1528 1526 1525 1525 1525 1525 1528 1532 1532 1531 1532 1530 1530 1525 1526 1527 1527 1529 1534 1536 1539
1504 1502 1502 1502 1502 1503 1502 1502 1503 1504 1505 1508 1507 1508 1509 1510 1510 1511 1512 1512 1513 1517 1520 1527 1527 1525 1525 1525 1526 1535 1533 1536 1536 1534 1529 1530 1533 1528 1527 1527 1527 1530 1532 1535 1537
1505 1503 1502 1501 1505 1502 1502 1502 1503 1504 1515 1510 1508 1509 1510 1509 1511 1511 1511 1513 1514 1520 1522 1526 1526 1526 1525 1528 1530 1533 1535 1534 1536 1541 1543 1530 1549 1532 1530 1530 1531 1531 1532 1533 1536
1505 1503 1502 1502 1502 1502 1504 1503 1503 1505 1544 1509 1508 1508 1508 1510 1512 1512 1512 1513 1515 1517 1521 1529 1528 1527 1527 1531 1530 1532 1534 1535 1536 1542 1541 1537 1550 1536 1532 1533 1529 1529 1529 1531 1534
1505 1503 1502 1502 1501 1502 1502 1503 1505 1521 1535 1507 1505 1506 1508 1509 1510 1512 1513 1514 1515 1517 1522 1527 1528 1528 1529 1530 1531 1532 1535 1537 1540 1548 1561 1536 1543 1537 1533 1524 1524 1526 1529 1531 1534
1505 1502 1501 1500 1501 1502 1502 1504 1521 1533 1502 1506 1505 1504 1505 1508 1509 1510 1513 1515 1520 1532 1530 1529 1530 1529 1529 1531 1530 1532 1540 1560 1559 1568 1558 1530 1538 1526 1517 1516 1515 1520 1526 1529 1533
1503 1502 1500 1500 1499 1500 1503 1507 1523 1500 1503 1498 1500 1502 1506 1506 1508 1510 1512 1517 1514 1515 1531 1541 1541 1530 1529 1529 1531 1531 1537 1555 1555 1560 1553 1534 1539 1523 1519 1516 1513 1521 1526 1530 1532
1501 1500 1499 1498 1499 1499 1503 1524 1511 1498 1492 1498 1501 1505 1507 1505 1506 1509 1513 1513 1511 1512 1524 1528 1528 1529 1529 1529 1531 1532 1543 1534 1545 1549 1559 1542 1526 1524 1522 1522 1522 1525 1528 1531 1533
1497 1497 1496 1496 1497 1499 1503 1506 1494 1489 1490 1493 1497 1498 1508 1507 1508 1511 1510 1505 1509 1509 1511 1514 1528 1529 1530 1530 1531 1530 1532 1547 1558 1559 1548 1539 1526 1526 1525 1524 1525 1527 1527 1529 1532
1496 1494 1492 1494 1495 1498 1507 1500 1488 1488 1489 1492 1494 1496 1494 1499 1503 1505 1503 1505 1504 1508 1510 1512 1520 1534 1531 1533 1532 1537 1536 1535 1542 1546 1551 1562 1537 1516 1517 1519 1522 1523 1525 1528 1531
1493 1494 1489 1491 1497 1491 1493 1485 1485 1486 1488 1490 1490 1488 1491 1494 1497 1498 1500 1501 1502 1504 1511 1512 1523 1546 1529 1527 1526 1525 1527 1530 1547 1537 1546 1555 1544 1515 1518 1519 1520 1523 1527 1531 1532
1487 1488 1489 1488 1493 1491 1483 1481 1481 1485 1487 1488 1489 1487 1487 1490 1496 1494 1501 1502 1502 1505 1510 1511 1527 1549 1533 1533 1527 1525 1523 1526 1537 1543 1539 1553 1538 1518 1520 1520 1522 1524 1528 1530 1531
1487 1484 1484 1486 1481 1479 1480 1479 1481 1480 1480 1482 1485 1485 1488 1490 1489 1495 1501 1503 1503 1504 1506 1507 1517 1520 1526 1516 1519 1524 1521 1522 1530 1557 1535 1534 1521 1520 1524 1523 1524 1526 1528 1529 1529
1482 1477 1476 1480 1477 1475 1473 1472 1475 1480 1480 1478 1483 1483 1485 1490 1492 1494 1498 1503 1504 1505 1506 1508 1524 1515 1514 1514 1515 1516 1517 1519 1529 1521 1527 1513 1518 1517 1522 1524 1525 1525 1524 1526 1527
1477 1475 1473 1473 1471 1472 1473 1470 1469 1471 1474 1478 1477 1476 1480 1483 1481 1488 1489 1496 1498 1505 1507 1509 1522 1531 1534 1515 1515 1518 1517 1513 1514 1513 1511 1511 1516 1517 1521 1523 1525 1525 1526 1527 1526
1475 1473 1472 1470 1469 1471 1468 1464 1463 1463 1468 1466 1469 1473 1477 1478 1480 1483 1484 1485 1487 1496 1504 1510 1520 1530 1524 1515 1521 1523 1506 1506 1505 1505 1505 1512 1513 1518 1522 1522 1523 1523 1522 1522 1522